Theta_e
333 339 347 347 346 346 346 347 348 348 347 347 347 348 347 347 346 346 345 343 344 342 343 343 344 345 346 348 348 347 346 346 346 347 349 349 350 349 349 350 350 346 352
338 341 348 347 346 346 346 346 347 346 347 346 346 346 345 344 346 345 345 343 344 342 342 342 342 343 344 345 346 345 343 345 344 345 344 344 347 349 348 350 348 347 351
339 341 341 347 346 346 346 346 346 346 346 346 346 345 345 343 344 343 344 343 343 343 343 343 343 342 343 344 343 342 343 346 345 344 342 338 341 348 348 349 349 349 350
339 340 340 346 346 346 346 346 345 345 345 344 344 344 345 344 344 344 344 345 344 343 342 342 342 342 342 342 340 342 344 345 343 341 336 338 340 346 347 347 347 347 348
336 338 342 346 346 345 345 345 345 345 344 344 343 343 343 343 344 345 345 343 342 342 341 340 340 340 340 340 339 340 344 342 339 337 335 336 337 343 344 346 346 346 347
336 339 343 345 345 345 345 344 344 343 343 343 342 342 342 343 342 343 340 340 341 341 340 339 339 338 339 339 337 336 335 337 333 330 332 335 335 343 343 344 345 346 347
332 335 338 344 343 341 340 339 340 341 343 342 342 341 341 342 342 343 341 342 341 339 338 337 337 336 336 337 336 335 334 331 327 327 329 332 335 343 342 342 343 344 345
328 329 333 340 342 343 342 342 342 342 340 340 341 341 342 342 341 343 341 340 339 338 338 338 338 338 337 337 336 335 334 328 327 326 328 331 343 342 343 342 340 342 343
326 328 327 330 337 340 341 342 341 341 341 341 341 341 341 342 342 340 341 341 340 339 339 339 339 338 338 337 338 337 335 332 322 325 329 329 343 343 341 342 341 339 341
326 326 324 325 328 329 330 338 338 338 339 338 337 337 336 337 340 341 338 339 339 339 338 339 339 338 338 338 338 336 334 331 326 325 327 330 339 340 341 338 339 341 341
324 324 324 325 325 326 327 331 332 333 333 332 332 333 331 330 330 331 333 336 338 338 338 338 338 339 337 336 336 334 332 328 321 323 325 334 338 334 339 339 339 338 338
320 323 324 324 325 325 330 325 325 327 325 325 325 325 326 326 328 328 328 331 333 333 334 335 334 336 334 330 330 327 324 328 324 325 326 337 337 337 333 332 336 338 338
320 322 323 323 324 324 324 322 323 322 322 323 323 324 324 324 324 325 324 325 325 326 325 327 324 327 328 328 325 325 322 326 328 328 330 334 337 337 336 336 334 332 335
320 322 323 322 322 321 322 322 322 322 320 320 321 324 321 321 321 321 322 321 322 322 321 321 320 323 327 325 324 322 321 319 326 328 328 329 333 336 337 337 337 336 334
319 321 321 320 319 320 320 319 320 320 318 317 317 319 322 321 319 320 319 319 318 317 317 317 317 319 317 315 318 317 314 315 318 319 319 323 326 329 334 336 336 336 336
318 319 319 319 318 318 315 316 318 316 314 313 313 314 318 319 324 324 322 320 318 318 318 318 318 315 315 315 313 312 311 311 309 310 312 315 321 324 328 334 335 335 335
317 317 317 317 315 315 313 313 314 314 312 310 310 311 312 313 314 313 313 312 312 311 312 314 315 314 314 314 313 313 313 311 310 310 311 311 313 321 325 325 327 329 332
315 315 314 317 312 311 311 309 311 310 308 308 307 307 308 309 310 309 309 308 307 307 309 308 307 310 308 306 306 305 306 308 307 307 307 310 309 316 318 323 324 325 326
316 313 311 312 310 309 307 306 306 306 306 305 305 304 305 306 307 306 306 305 306 305 304 304 304 304 303 303 304 304 304 304 305 309 309 309 310 313 313 320 323 325 327
313 312 310 309 308 306 305 303 302 302 302 303 302 303 304 304 305 305 304 303 304 303 302 302 301 300 300 300 303 303 303 305 306 307 309 309 307 308 309 311 315 318 325
308 308 309 307 306 305 302 301 300 300 301 301 301 303 303 303 304 303 302 302 301 301 300 300 301 299 298 298 299 300 302 302 303 304 304 302 302 304 306 308 310 312 313
306 307 307 307 305 305 303 302 302 301 300 300 301 302 302 302 302 302 301 300 300 300 299 299 299 299 298 297 297 297 296 300 301 300 300 300 299 302 303 304 306 308 309
303 304 307 307 306 305 304 302 300 300 300 299 300 299 301 301 301 301 300 299 299 299 298 298 297 298 297 296 297 298 294 294 296 299 297 297 297 297 298 300 302 307 307
302 303 306 306 306 305 304 302 301 300 299 299 299 299 299 300 300 300 300 299 299 298 297 298 299 297 297 295 297 299 296 296 295 295 298 296 297 297 296 298 299 304 306
298 302 304 305 305 305 304 303 301 300 300 299 298 298 297 298 298 299 299 298 298 298 297 297 297 296 297 296 296 296 295 295 295 296 294 295 296 296 297 298 298 302 306
295 300 301 303 304 304 303 303 302 301 299 298 297 297 297 297 297 297 298 297 297 297 297 296 296 296 296 296 296 296 296 295 294 293 292 292 292 294 297 303 302 304 305
Wind_Speed
1 2 1 3 3 4 5 6 7 5 5 5 6 7 5 9 9 10 9 9 10 10 10 10 11 12 13 14 14 13 12 12 12 11 9 9 7 7 8 7 7 7 14
4 2 2 3 5 6 7 7 7 5 5 6 5 5 4 5 8 8 9 8 10 10 10 10 10 11 11 12 12 12 11 9 8 9 8 8 6 6 6 7 7 8 14
4 4 4 5 6 6 7 7 7 6 6 7 6 6 5 4 7 8 8 9 9 9 10 10 10 10 11 11 12 11 10 11 10 9 8 5 4 6 7 6 7 10 12
5 4 4 5 6 7 6 6 6 6 5 5 4 6 7 8 8 8 9 9 9 9 9 9 9 10 10 11 12 12 11 11 10 9 5 5 5 5 6 7 8 10 11
5 4 4 6 7 6 6 5 6 6 5 4 4 4 5 6 8 9 9 7 7 6 6 6 8 9 10 11 12 13 12 11 10 7 5 5 4 3 3 6 8 10 8
5 4 5 7 7 7 6 6 6 5 5 5 4 4 5 5 4 9 9 6 6 6 5 5 6 7 8 9 11 11 10 8 8 5 5 6 5 4 3 3 7 10 13
4 3 5 7 5 5 5 4 3 3 3 3 4 3 3 4 5 8 8 7 6 5 5 4 5 6 7 8 9 10 9 7 5 5 5 5 5 7 6 2 5 7 10
6 4 5 6 6 5 5 5 5 4 2 2 2 3 3 4 5 8 8 5 5 4 4 5 5 7 8 8 8 7 9 7 4 4 4 4 7 7 7 6 1 4 6
4 5 3 3 4 5 6 6 6 6 5 4 5 5 5 3 3 4 6 6 4 2 1 3 4 3 4 4 6 6 7 6 3 2 3 2 4 6 6 7 5 1 3
3 3 4 3 4 3 4 6 6 7 8 8 8 7 7 7 4 1 2 1 3 3 1 1 1 1 3 3 6 7 7 7 4 1 2 2 5 5 3 4 4 4 3
2 3 3 3 3 3 3 3 6 7 9 8 7 8 6 4 5 6 6 5 4 4 5 5 7 6 3 1 5 5 6 3 3 2 2 4 4 4 3 2 2 2 1
5 4 4 3 3 3 3 3 3 4 3 4 4 5 4 4 4 4 5 7 7 8 8 8 8 8 5 2 3 4 3 2 4 2 2 8 6 4 1 1 1 1 4
6 3 4 5 4 3 3 2 2 2 2 2 4 3 3 3 3 3 2 3 3 6 3 4 4 3 3 2 3 2 4 3 2 2 4 11 10 7 5 4 1 1 1
6 6 6 6 5 3 3 2 2 2 2 2 3 4 2 2 2 2 2 3 3 3 4 4 3 3 1 3 3 2 3 3 3 2 4 8 11 14 9 8 5 5 2
7 7 7 6 4 4 3 3 2 2 2 2 3 3 2 1 1 2 2 2 3 3 2 3 4 3 2 2 2 3 3 2 3 2 1 8 8 10 14 11 8 6 6
7 7 6 6 4 4 3 3 3 3 3 3 2 2 3 2 1 1 2 2 2 3 3 3 2 2 1 1 1 1 2 1 2 3 1 1 4 5 8 7 7 7 7
6 5 8 7 5 5 5 4 3 3 3 3 2 3 3 3 3 2 2 2 2 2 3 2 2 2 1 2 2 2 2 2 1 1 2 3 3 4 4 3 4 5 7
7 10 8 5 6 5 4 3 3 3 3 3 2 2 3 2 2 2 1 0 1 2 2 2 2 2 2 3 2 3 2 2 2 2 2 2 1 1 2 6 5 5 5
10 8 7 7 7 6 5 4 4 3 2 2 2 2 1 2 1 1 1 1 1 1 2 2 2 2 1 2 2 2 2 1 2 2 3 2 3 2 2 5 7 8 8
6 7 7 5 7 6 5 4 3 3 2 2 2 1 0 1 2 1 1 0 1 1 1 1 1 2 1 1 2 2 3 3 3 3 3 3 3 4 3 5 4 4 11
5 7 8 9 8 6 3 3 2 2 2 1 1 0 0 1 2 1 1 1 2 0 1 1 0 0 1 2 2 2 3 4 4 3 3 4 5 4 4 5 4 3 4
6 8 8 9 8 6 3 3 3 3 1 1 1 1 1 1 1 0 1 1 1 0 1 0 1 0 0 0 1 1 1 3 3 4 3 3 5 3 4 5 4 4 3
9 10 11 11 11 7 6 4 3 3 2 1 1 2 2 2 1 1 1 1 1 1 1 1 1 3 2 1 1 2 1 3 1 2 3 3 4 3 3 4 4 4 4
7 7 7 9 10 7 8 5 5 4 4 3 3 3 3 3 2 2 2 2 2 1 1 1 1 2 2 3 0 1 1 2 3 1 1 1 2 4 4 3 3 3 4
8 9 9 9 8 7 8 7 5 4 4 1 0 1 2 2 2 3 2 2 2 1 1 2 1 1 2 2 2 1 1 1 1 1 2 2 2 3 3 3 2 2 4
6 6 6 8 6 7 7 7 7 6 4 3 2 3 3 2 2 3 2 2 2 2 2 2 2 2 2 2 2 2 2 2 2 2 2 0 2 2 3 3 2 3 3
Wind_Direction
195 194 40 33 62 76 62 60 64 69 71 64 76 83 82 88 71 80 70 72 78 68 58 58 58 60 59 64 63 59 50 50 54 59 56 61 72 90 95 93 106 106 104
149 154 66 60 65 62 62 70 70 69 65 69 74 72 61 72 82 61 63 61 63 68 64 59 60 67 68 64 59 50 43 44 61 51 47 38 46 97 100 99 102 108 105
114 83 65 72 81 88 81 80 84 87 89 90 83 76 76 91 86 82 68 62 60 54 55 55 56 61 66 65 53 44 55 69 70 53 44 31 35 85 113 111 111 116 114
108 88 77 89 89 91 96 101 97 95 102 109 108 111 101 98 101 97 86 75 65 57 47 49 54 57 59 60 54 51 70 78 64 50 37 32 12 77 116 127 129 125 126
84 72 80 94 96 104 107 108 102 101 103 109 105 98 95 113 125 116 111 108 104 87 71 54 55 54 57 58 54 54 68 68 59 49 35 17 13 36 97 145 137 131 129
97 92 83 94 104 105 105 101 105 113 116 118 129 135 136 125 148 135 133 126 111 98 72 45 46 57 58 58 60 55 51 59 55 38 22 11 6 38 66 127 156 142 131
116 101 89 92 102 129 124 100 86 96 105 108 121 138 148 141 126 148 145 139 125 119 93 57 35 35 50 60 60 59 50 67 71 49 28 5 351 30 44 104 163 155 142
137 113 81 89 92 92 111 91 78 69 79 80 95 102 133 138 124 134 142 141 134 139 132 101 50 24 26 42 53 56 55 54 64 63 40 15 351 32 39 41 96 165 166
126 132 106 80 72 62 63 69 73 69 57 59 64 67 57 81 129 157 152 156 161 120 84 101 114 100 33 35 61 35 53 60 55 68 62 36 1 28 40 33 35 32 187
174 135 124 107 79 66 50 61 54 58 58 55 55 62 62 50 62 68 93 72 140 149 153 335 1 197 58 8 46 57 26 27 351 23 33 360 20 55 39 56 33 27 39
207 163 134 144 121 104 91 63 54 44 48 46 46 47 50 61 40 43 34 24 28 29 13 354 335 339 297 354 36 56 89 68 4 18 349 344 348 54 51 45 358 328 228
194 200 180 161 161 149 117 84 67 49 45 45 48 44 51 55 59 60 41 38 31 18 10 360 356 345 1 6 18 39 25 23 109 82 9 352 335 333 50 94 53 6 277
198 178 185 182 171 167 139 115 92 78 50 44 44 42 36 53 39 31 15 15 10 15 4 0 1 3 0 87 54 351 47 17 9 36 61 6 345 348 331 285 243 240 272
197 201 196 196 172 175 134 132 122 101 83 52 35 39 46 38 38 42 32 11 8 9 1 358 359 7 75 117 151 87 63 55 28 18 9 38 13 354 338 327 307 266 251
209 201 201 184 180 166 146 136 132 116 91 70 44 24 20 27 28 15 28 20 7 1 2 343 340 334 12 100 93 88 88 80 70 69 50 360 22 8 341 337 347 326 282
214 210 183 194 178 156 149 157 138 120 103 80 54 31 20 4 333 86 44 25 13 355 329 328 330 340 315 1 110 97 93 84 99 108 103 11 12 18 336 353 359 1 344
207 180 187 188 170 164 149 126 124 118 103 98 74 39 39 40 38 52 42 5 5 338 326 333 345 343 348 358 349 340 307 287 303 23 70 61 324 345 354 356 23 20 13
179 187 181 157 162 155 142 123 111 97 104 101 86 68 48 44 69 90 108 239 327 353 360 26 7 354 360 352 321 328 330 314 321 25 27 313 327 54 15 24 40 53 40
192 168 170 167 166 142 112 104 103 112 110 100 90 86 42 34 33 125 172 244 14 23 21 4 25 33 6 341 307 345 360 357 351 53 56 32 30 74 87 43 32 34 54
181 162 143 141 140 136 130 119 96 98 118 146 168 177 78 342 15 113 154 17 35 46 350 9 53 36 63 285 316 356 354 14 46 53 41 50 53 48 65 80 55 11 55
159 154 156 157 172 152 141 131 104 197 194 233 230 177 78 333 348 34 31 337 14 272 250 236 85 157 344 4 27 352 352 18 49 59 52 60 48 44 44 61 67 39 40
179 176 169 176 167 178 153 156 160 156 175 106 174 271 263 304 2 188 162 287 288 65 300 338 170 26 306 72 166 69 285 322 12 22 44 53 52 31 43 46 61 69 51
187 185 182 180 179 178 168 115 73 61 69 66 278 275 242 209 198 158 186 195 208 170 229 239 219 188 224 303 231 155 50 247 295 341 28 50 51 50 20 17 43 59 62
209 183 181 177 178 178 161 157 162 171 174 213 190 197 203 207 204 188 187 195 205 175 209 238 177 199 152 220 335 145 213 193 185 215 324 31 44 45 17 357 23 48 64
192 190 188 182 174 164 171 177 179 185 200 169 146 230 235 245 236 230 204 191 201 189 227 240 276 231 189 176 186 162 194 326 312 151 193 223 58 35 25 8 350 75 78
203 193 181 174 181 169 175 190 194 202 194 186 218 238 242 245 249 244 230 208 206 202 205 215 216 220 219 211 196 197 198 192 213 167 116 281 109 30 8 12 53 95 80